Погода в Детройте

США     42°19′58″N   83°02′35″W
темп.,
°C
ветер,
м/с
пор.,
м/с
влажн.,
%
обл.,
%
осадки,
мм/ч
давл.,
гПа
погр.,
м
20 апреля, вт
вт2023:00+6з5106761 0.6 10131141
02:00+4з486798 0.6 1014779
05:00+3зсз366594 0.0 1015659
08:00+3зсз4654100 0.0 1017856
11:00+5зсз4646100 0.0 10181244
14:00+5з4548100 0.1 10181465
17:00+3з2368100 0.4 1017793
20:00+2сз1190100 1.9 1017260
21 апреля, ср
ср2123:00+2с2496100 2.2 1016319
02:00+1ссв4998100 5.1 1015514
05:000ссв5994100 2.8 1015674
08:00−1ссз488167 2.9 1016798
11:00+1сз686133 0.0 10171436
14:00+4сз4650100 0.1 10172003
17:00+6сз5840100 0.1 10162379
20:00+4сз484269 0.3 10161043
22 апреля, чт
чт2223:00+3зсз145010 0.0 1017213
02:00+2зсз36555 0.0 1017283
05:000зсз25561 0.0 1017218
08:00+1з365763 0.0 1018349
11:00+5зсз475597 0.0 10181637
14:00+9зсз6831100 0.1 10172610
17:00+10зсз7931100 0.0 10162557
20:00+7з711420 0.0 10181105
23 апреля, пт
пт2323:00+5зюз511490 0.0 1019586
02:00+4з515531 0.0 1019498
05:00+4зюз414560 0.0 1019408
08:00+4зюз413620 0.0 1020374
11:00+10з57465 0.0 1020916
14:00+14зюз57385 0.0 10181909
17:00+15зюз573649 0.0 10162230
20:00+13юз375295 0.0 1016756
24 апреля, сб
сб2423:00+10зюз376258 0.0 1017241
02:00+8зюз26715 0.0 1017164
05:00+7юз247839 0.0 101888
08:00+8ююз2578100 0.0 1017164
11:00+10ююз3673100 0.0 1016450
14:00+9ю4982100 0.1 1015585
17:00+8ю4987100 0.2 1013569
20:00+8ю4992100 0.7 1011454